Regional Weather Roundup
Issued by NWS State College, PA

Home | Current Version | Previous Version | Text Only | Print | Product List | Glossary On
Versions: 1 2 3 4 5 6 7 8 9 10 11 12 13 14 15 16 17 18 19 20 21 22 23 24 25 26 27 28 29 30 31 32 33 34 35 36 37 38 39 40 41 42 43 44 45 46 47 48 49 50
373
ASUS41 KCTP 241410
RWRCTP

REGIONAL WEATHER ROUNDUP
NATIONAL WEATHER SERVICE STATE COLLEGE PA
900 AM EST FRI FEB 24 2017

Note: "fair" indicates few or no clouds below 12,000 feet with no
significant weather and/or obstructions to visibility.

* = STATION THAT DOES NOT REPORT PRECIPITATION /E.G. RAIN...SNOW...ETC/
    THUNDER OR FOG.

PAZ002>004-007>009-013>016-020>023-029>032-241500-
WESTERN PENNSYLVANIA

CITY           SKY/WX    TMP DP  RH WIND       PRES   REMARKS
ERIE           PTSUNNY   47  43  86 CALM      29.72F
MEADVILLE      CLOUDY    59  51  75 S8G18     29.75F
FRANKLIN*      CLOUDY    57  52  82 S13       29.80S
NEW CASTLE     FAIR      60  53  77 S6G18     29.78F
BEAVER COUNTY  NOT AVBL
BUTLER*        PTSUNNY   61  50  67 S9        29.82S
PITTSBURGH INT MOSUNNY   62  51  67 S8        29.80S
PITTSBURGH     CLOUDY    60  48  64 S9        29.82R
INDIANA*       PTSUNNY   64  52  63 SW10      29.86S
LATROBE        PTSUNNY   63  50  63 SW9       29.84S
WASHINGTON CO* PTSUNNY   61  50  67 S8        29.84S
$$

PAZ004>006-010>012-017>019-024>028-033>037-041-042-045-046-049>053-241500-
CENTRAL PENNSYLVANIA

CITY           SKY/WX    TMP DP  RH WIND       PRES   REMARKS
BRADFORD       CLOUDY    57  51  80 S6        29.81S
DUBOIS         CLOUDY    60  49  66 SW9       29.82S
CLEARFIELD       N/A    N/A N/A N/A MISG      29.85S
JOHNSTOWN      SUNNY     60  48  64 SW10      29.86S
ALTOONA        PTSUNNY   60  52  74 S5        29.87S
STATE COLLEGE  CLOUDY    54  52  94 CALM      29.86S
WILLIAMSPORT   CLOUDY    53  48  83 CALM      29.86S
SELINSGROVE    PTSUNNY   61  53  75 S5        29.89R
FT INDIANTOWN  SUNNY     57  57 100 CALM      29.91S
CAPITAL CITY   SUNNY     61  50  67 E5        29.91R
HARRISBURG     SUNNY     60  52  74 SE6       29.90S
YORK           SUNNY     61  54  77 S7        29.90S
$$

PAZ038>040-043-044-047-048-054-055-060>062-067>071-241500-
EASTERN PENNSYLVANIA

CITY           SKY/WX    TMP DP  RH WIND       PRES   REMARKS
SCRANTON       CLOUDY    61  53  75 S7        29.89R
MOUNT POCONO   SUNNY     55  51  86 SW6       29.93R
ALLENTOWN      SUNNY     60  52  74 S6        29.93R
QUAKERTOWN*    SUNNY     59  54  82 SW7       29.95R
READING        SUNNY     63  55  75 SW8       29.92R
LANCASTER      SUNNY     58  55  90 E3        29.92R
COATESVILLE    SUNNY     57  54  88 VRB6      29.95S
POTTSTOWN      SUNNY     59  53  80 S5        29.95R
BLUE BELL      SUNNY     59  52  77 SW6       29.94R
DOYLESTOWN     SUNNY     58  54  86 SW6       29.94R
WILLOW GROVE   NOT AVBL
NORTH PHILA    SUNNY     61  53  75 S7        29.96S
PHILADELPHIA   MOSUNNY   60  53  77 SW7       29.95S
$$




USA.gov is the U.S. government's official web portal to all federal, state and local government web resources and services.